FW1683 Weather Reports


Display with metric or nautical units.
time (UTC)temp
F
wind
direction
speed
MPH
gust
MPH
rain 1hr
in
rain 24hr
in
rain mn
in
humidity
%
barometer
mb
20260904171003 87 22 7.0 11.0 0.00 0.00 0.00 64 1017.6
20260904170005 88 64 6.0 9.0 0.00 0.00 0.00 62 1017.5
20260904165004 89 61 6.0 10.0 0.00 0.00 0.00 61 1017.5
20260904164006 89 59 7.0 11.0 0.00 0.00 0.00 60 1017.5
20260904161005 93 40 7.0 11.0 0.00 0.00 0.00 54 1017.6
20260904160005 94 37 6.0 10.0 0.00 0.00 0.00 52 1017.7
20260904155007 93 72 5.0 8.0 0.00 0.00 0.00 53 1017.7
20260904153008 92 88 6.0 11.0 0.00 0.00 0.00 54 1017.5
20260904152005 92 97 6.0 10.0 0.00 0.00 0.00 52 1017.6
20260904151004 92 91 7.0 12.0 0.00 0.00 0.00 51 1017.7
20260904150007 93 57 8.0 13.0 0.00 0.00 0.00 50 1017.7
20260904145004 93 77 10.0 15.0 0.00 0.00 0.00 46 1017.7
20260904144005 93 72 8.0 14.0 0.00 0.00 0.00 46 1017.7
20260904143004 92 62 11.0 19.0 0.00 0.00 0.00 49 1017.7
20260904142004 93 83 8.0 14.0 0.00 0.00 0.00 52 1017.6
20260904141006 92 97 8.0 13.0 0.00 0.00 0.00 54 1017.6
20260904140006 92 90 9.0 14.0 0.00 0.00 0.00 51 1017.8
20260904135005 92 110 8.0 12.0 0.00 0.00 0.00 50 1017.8
20260904134006 93 85 8.0 13.0 0.00 0.00 0.00 49 1017.8
20260904133005 93 96 9.0 14.0 0.00 0.00 0.00 49 1017.9
20260904132004 93 88 8.0 12.0 0.00 0.00 0.00 50 1018.1
20260904131004 91 103 7.0 12.0 0.00 0.00 0.00 54 1018.3
20260904130006 90 123 8.0 13.0 0.00 0.00 0.00 57 1018.3
20260904125004 90 129 7.0 12.0 0.00 0.00 0.00 56 1018.4
20260904124005 90 111 8.0 12.0 0.00 0.00 0.00 57 1018.4
20260904123007 89 134 8.0 13.0 0.00 0.00 0.00 58 1018.5
20260904122004 89 103 8.0 12.0 0.00 0.00 0.00 59 1018.6
20260904121006 88 110 8.0 13.0 0.00 0.00 0.00 61 1018.7
20260904115004 90 145 7.0 11.0 0.00 0.00 0.00 60 1018.9
20260904113005 89 105 8.0 12.0 0.00 0.00 0.00 61 1018.9
20260904112004 88 122 9.0 15.0 0.00 0.00 0.00 65 1019.0
20260904111004 88 142 9.0 14.0 0.00 0.00 0.00 64 1019.1
20260904110005 88 118 9.0 15.0 0.00 0.00 0.00 64 1019.2
20260904105003 89 115 9.0 13.0 0.00 0.00 0.00 63 1019.3
20260904104005 88 127 9.0 13.0 0.00 0.00 0.00 63 1019.3
20260904103006 90 110 7.0 11.0 0.00 0.00 0.00 59 1019.4
20260904101004 90 125 6.0 10.0 0.00 0.00 0.00 53 1019.6
20260904100005 90 135 5.0 8.0 0.00 0.00 0.00 52 1019.7
20260904095004 90 124 5.0 9.0 0.00 0.00 0.00 52 1019.7
20260904093006 90 129 4.0 6.0 0.00 0.00 0.00 48 1019.7
20260904092004 89 238 4.0 7.0 0.00 0.00 0.00 49 1019.7
20260904090004 88 221 3.0 5.0 0.00 0.00 0.00 49 1019.7
20260904085004 88 189 2.0 4.0 0.00 0.00 0.00 50 1019.6
20260904084005 87 235 3.0 5.0 0.00 0.00 0.00 54 1019.6
20260904083006 86 240 3.0 4.0 0.00 0.00 0.00 55 1019.6
20260904082004 86 284 2.0 4.0 0.00 0.00 0.00 56 1019.5
20260904081007 86 260 1.0 3.0 0.00 0.00 0.00 56 1019.5
20260904080006 83 273 4.0 6.0 0.00 0.00 0.00 60 1019.5
20260904075004 83 307 2.0 3.0 0.00 0.00 0.00 61 1019.5
20260904074004 82 305 3.0 5.0 0.00 0.00 0.00 63 1019.5
20260904073005 82 308 3.0 4.0 0.00 0.00 0.00 64 1019.5
20260904072004 81 294 1.0 2.0 0.00 0.00 0.00 66 1019.6
20260904071004 80 281 1.0 3.0 0.00 0.00 0.00 69 1019.7
20260904070006 79 291 2.0 3.0 0.00 0.00 0.00 70 1019.7
20260904065004 77 263 4.0 6.0 0.00 0.00 0.00 71 1019.8
20260904064005 77 278 4.0 6.0 0.00 0.00 0.00 73 1019.8
20260904063005 76 306 5.0 7.0 0.00 0.00 0.00 77 1019.8
20260904062004 76 297 4.0 6.0 0.00 0.00 0.00 79 1019.8
20260904061004 76 273 3.0 5.0 0.00 0.00 0.00 82 1019.7
20260904060005 75 270 3.0 5.0 0.00 0.00 0.00 83 1019.6
20260904055004 75 264 3.0 4.0 0.00 0.00 0.00 83 1019.6
20260904053003 76 302 2.0 4.0 0.00 0.00 0.00 80 1019.6
20260904052004 75 270 2.0 3.0 0.00 0.00 0.00 79 1019.6
20260904051004 76 270 2.0 3.0 0.00 0.00 0.00 78 1019.6
20260904050005 76 270 1.0 3.0 0.00 0.00 0.00 78 1019.7
20260904045010 76 272 1.0 2.0 0.00 0.00 0.00 79 1019.6
20260904044004 76 274 2.0 3.0 0.00 0.00 0.00 78 1019.6
20260904043004 76 275 1.0 2.0 0.00 0.00 0.00 78 1019.7
20260904041004 76 303 2.0 3.0 0.00 0.00 0.00 79 1019.7
20260904035004 76 27 0.0 1.0 0.00 0.00 0.00 82 1019.7
20260904034005 76 294 1.0 2.0 0.00 0.00 0.00 81 1019.7
20260904033005 76 263 1.0 3.0 0.00 0.00 0.00 81 1019.8
20260904032004 76 266 1.0 3.0 0.00 0.00 0.00 83 1019.7
20260904031005 76 273 2.0 3.0 0.00 0.00 0.00 85 1019.9
20260904024006 76 231 2.0 4.0 0.00 0.00 0.00 87 1019.9
20260904021004 77 209 1.0 2.0 0.00 0.00 0.00 84 1020.1
20260904020005 77 309 2.0 4.0 0.00 0.00 0.00 85 1020.2
20260904015004 77 289 2.0 4.0 0.00 0.00 0.00 85 1020.2
20260904014005 77 273 3.0 4.0 0.00 0.00 0.00 86 1020.2
20260904012006 77 258 4.0 6.0 0.00 0.00 0.00 86 1020.3
20260904011004 77 258 3.0 4.0 0.00 0.00 0.00 86 1020.5
20260904005004 78 251 2.0 4.0 0.00 0.00 0.00 86 1020.5
20260904004005 77 230 2.0 4.0 0.00 0.00 0.00 85 1020.6
20260904003025 78 255 3.0 5.0 0.00 0.00 0.00 84 1020.7
20260904002004 78 263 3.0 5.0 0.00 0.00 0.00 84 1020.7
20260904001004 78 259 3.0 5.0 0.00 0.00 0.00 84 1020.7
20260904000006 79 263 3.0 5.0 0.00 0.00 0.00 84 1020.8
20260903235004 79 265 4.0 5.0 0.00 0.00 0.00 83 1020.9
20260903233004 79 264 5.0 7.0 0.00 0.00 0.00 83 1020.9
20260903232004 79 267 5.0 7.0 0.00 0.00 0.00 83 1021.0
20260903231004 80 260 5.0 7.0 0.00 0.00 0.00 84 1021.0
20260903230005 80 263 4.0 6.0 0.00 0.00 0.00 84 1021.0
20260903225005 80 265 4.0 6.0 0.00 0.00 0.00 84 1021.1
20260903223004 81 256 2.0 4.0 0.00 0.00 0.00 82 1021.1
20260903221004 81 293 2.0 3.0 0.00 0.00 0.00 82 1021.3
20260903220005 81 337 2.0 4.0 0.00 0.00 0.00 82 1021.3
20260903213005 82 342 2.0 3.0 0.00 0.00 0.00 81 1021.5
20260903212004 82 329 2.0 3.0 0.00 0.00 0.00 81 1021.6
20260903211004 82 345 3.0 5.0 0.00 0.00 0.00 81 1021.6
20260903210008 82 342 3.0 5.0 0.00 0.00 0.00 81 1021.6
20260903205009 82 12 4.0 5.0 0.00 0.00 0.00 80 1021.6
20260903204010 82 12 4.0 6.0 0.00 0.00 0.00 79 1021.5
20260903203012 82 30 4.0 6.0 0.00 0.00 0.00 79 1021.3
20260903201007 82 44 4.0 6.0 0.00 0.00 0.00 79 1021.2
20260903200006 82 48 5.0 8.0 0.00 0.00 0.00 80 1021.2
20260903195004 82 39 3.0 6.0 0.00 0.00 0.00 80 1021.0
20260903193004 83 55 3.0 5.0 0.00 0.00 0.00 77 1020.8
20260903192004 83 57 4.0 5.0 0.00 0.00 0.00 75 1020.6
20260903191006 83 72 3.0 5.0 0.00 0.00 0.00 74 1020.4
20260903190005 82 86 3.0 5.0 0.00 0.00 0.00 71 1020.2
20260903185004 83 109 3.0 5.0 0.00 0.00 0.00 70 1020.1
20260903184005 83 110 4.0 6.0 0.00 0.00 0.00 69 1020.0
20260903182003 83 99 5.0 7.0 0.00 0.00 0.00 70 1020.0
20260903181025 83 96 5.0 8.0 0.00 0.00 0.00 70 1019.9
20260903175003 85 78 5.0 8.0 0.00 0.00 0.00 67 1019.9
20260903174004 85 80 5.0 9.0 0.00 0.00 0.00 66 1019.8
20260903173005 86 82 5.0 9.0 0.00 0.00 0.00 66 1019.8